Location: Cypress Grove
(33.9911°N, 118.4212°W)
Time: 05:54:12
(UTC+00:00)

Daily predictions for brighter satellites

Satellite Brightness Start Highest point End
(mag) Time Altitude Azimuth Time Altitude Azimuth Time Altitude Azimuth
OAO 3 Copernicus 4.4 01:08:46 10° W 01:13:50 80° N 01:18:53 10° E
Cosmos 2016 Rocket 4.5 01:11:27 10° SSW 01:17:39 68° W 01:23:58 10° N
Cosmos 1812 3.9 01:16:28 10° ESE 01:18:03 14° E 01:19:39 10° NE
Tsikada Rocket 4.1 01:12:55 10° N 01:19:16 61° E 01:25:30 10° SSE
CORIOLIS 4.1 01:14:11 10° SSE 01:19:31 73° ENE 01:24:52 10° N
SL-4 R/B 1.9 01:17:13 10° NW 01:20:34 46° NE 01:24:04 10° ESE
Cosmos 1025 Rocket 4.2 01:16:37 10° NNW 01:20:46 49° W 01:24:52 10° SSW
SL-16 R/B 4.1 01:16:59 10° N 01:22:37 37° WNW 01:28:14 10° SW
Cosmos 2278 Rocket 2.5 01:19:07 10° S 01:24:28 46° ESE 01:29:51 10° NE
Tiangong -2.0 01:23:15 10° WNW 01:26:25 76° SSW 01:29:34 10° ESE
SL-12 R/B(2) 4.2 01:19:22 10° SSW 01:26:52 81° ESE 01:35:49 10° NNE
Cosmos 2082 Rocket 4.0 01:26:29 10° NE 01:26:53 10° NE 01:27:16 10° NE
IGS 5A 4.3 01:24:04 10° S 01:27:56 54° W 01:31:51 10° NNW
Cosmos 1943 Rocket 2.3 01:22:59 10° S 01:28:27 54° ESE 01:33:53 10° NNE
OAO 2 Rocket 3.3 01:24:15 10° W 01:29:17 90° SSW 01:34:07 12° E
YAOGAN 1 4.0 01:30:17 10° ESE 01:32:59 17° ENE 01:35:40 10° NNE
IRS-1C 4.1 01:29:02 10° SSE 01:34:20 77° ENE 01:39:39 10° N
SPOT 1/Viking Rocket 4.3 01:30:16 10° SE 01:34:39 29° ENE 01:39:04 10° N
NOSS 3-4 (A) 4.5 01:27:44 10° NW 01:35:00 69° WSW 01:43:22 10° SSE
NOSS 3-4 (C) 4.5 01:27:49 10° NW 01:35:05 70° WSW 01:43:26 10° SSE
Cosmos 44 Rocket 3.4 01:31:13 10° S 01:35:45 53° ESE 01:40:27 10° NE
SAR-Lupe-1 4.0 01:35:03 10° SSE 01:38:35 90° ENE 01:42:10 10° NNW
SMAP 3.3 01:34:14 10° S 01:38:52 73° WSW 01:43:31 10° NNW
RESURS DK-1 4.1 01:39:39 10° NNE 01:41:21 13° NE 01:41:21 13° NE
Cosmos 407 Rocket 3.4 01:37:09 10° SSW 01:42:21 83° ESE 01:47:33 10° NNE
Okean 2 Rocket 4.3 01:39:57 10° SE 01:43:09 20° E 01:45:20 14° NE
ISS -2.2 01:41:12 10° WSW 01:44:14 31° NW 01:47:13 10° NNE
CZ-2D R/B 2.9 01:41:09 10° S 01:44:17 74° WSW 01:47:26 10° NNW
CZ-2D R/B 4.0 01:45:56 10° SE 01:49:37 34° ENE 01:53:23 10° N
SJ 16-02 2.3 01:46:09 10° SSE 01:49:43 26° E 01:51:41 19° ENE
Landsat 7 4.0 01:47:30 10° S 01:52:08 75° WSW 01:56:48 10° NNW
SJ-12 4.1 01:48:25 10° S 01:52:11 66° W 01:55:58 10° NNW
Helios 1A Rocket 2.5 01:51:52 10° NNE 01:55:11 53° E 01:58:29 10° S
Spot 4 Rocket 4.4 01:51:27 10° SE 01:56:08 39° ENE 02:00:51 10° N
Timation 2 Rocket 4.4 01:53:52 10° SSW 02:00:40 74° WNW 02:07:34 10° NNE
AQUARIUS 4.3 01:56:25 10° S 02:00:48 75° WSW 02:05:12 10° NNW
ATLAS 5 CENTAUR R/B 2.0 01:59:27 10° NNW 02:04:13 60° ENE 02:10:04 10° SE
Cosmos 371 Rocket 3.8 02:04:31 10° SSE 02:08:50 35° E 02:10:11 29° ENE
DNEPR-1 R/B 4.3 02:05:06 10° NW 02:09:51 69° WSW 02:15:32 10° SSE
Cosmos 2058 3.2 02:06:26 10° N 02:10:10 38° E 02:13:53 10° SSE
MOS 1 Rocket 3.1 02:06:00 10° S 02:10:14 82° WSW 02:14:36 10° NNW
Cosmos 1833 Rocket 3.1 02:05:15 10° NNW 02:10:50 64° WSW 02:16:23 10° S
USA 215 3.4 02:05:11 10° SE 02:11:43 78° SW 02:18:16 10° NW
Cosmos 1656 Rocket 4.4 02:10:25 10° SSE 02:15:02 28° ESE 02:15:15 28° E
Aureole 3 Rocket 3.2 02:13:41 10° SSW 02:16:53 47° W 02:19:49 10° N
Cosmos 304 Rocket 4.0 02:12:59 10° S 02:17:27 45° ESE 02:18:49 35° ENE
Delta 2 Rocket 4.4 02:14:36 10° W 02:18:21 37° SSW 02:20:35 20° SSE
NOAA 6 4.3 02:16:32 10° SE 02:21:23 43° ENE 02:26:14 10° N
Cosmos 1763 Rocket 3.3 02:18:00 10° NNW 02:23:12 73° ENE 02:28:17 10° SSE
Cosmos 1400 Rocket 2.5 02:19:34 10° S 02:23:21 65° E 02:24:09 49° NE
Cosmos 2151 Rocket 3.5 02:20:39 10° S 02:25:06 86° E 02:29:36 10° N
OAO 3 Rocket 3.0 02:20:56 10° W 02:25:35 87° N 02:26:46 50° ENE
Cosmos 540 Rocket 3.3 02:20:39 10° N 02:25:44 64° ENE 02:30:47 10° SSE
SJ-7 4.0 02:26:00 10° SSE 02:29:40 89° ENE 02:33:22 10° NNW
Cosmos 2251 Rocket 3.9 02:25:15 10° SSW 02:30:27 65° WNW 02:35:44 10° N
Sich 1 Rocket 3.5 02:27:42 10° S 02:32:08 64° E 02:33:11 48° NE
Cosmos 1464 Rocket 4.0 02:25:57 10° S 02:32:17 85° W 02:38:35 10° N
SL-19 R/B 4.0 02:32:04 10° SSE 02:37:22 86° ENE 02:42:35 10° NNW
Centaur AC-119 4.4 02:32:13 10° WSW 02:38:40 50° S 02:42:29 31° ESE
Geosat 4.5 02:40:39 41° NNE 02:40:39 41° NNE 02:44:26 10° NNW
Okean 1 Rocket 2.9 02:38:56 10° S 02:43:22 86° E 02:43:50 70° NNE
BlueWalker 3 4.0 02:40:12 10° S 02:41:14 17° S 02:41:14 17° S
Cosmos 2034 Rocket 3.8 02:37:29 10° S 02:43:37 77° E 02:49:50 10° N
IRAS Rocket 4.5 02:40:14 10° S 02:45:47 71° WSW 02:51:20 10° NNW
Meteor 2-1 Rocket 4.2 02:41:45 10° S 02:47:31 69° E 02:49:51 38° NNE
COSMO-SKYMED 1 4.1 02:44:36 10° N 02:48:18 33° WNW 02:51:59 10° SW
DMSP B5D1-3 4.4 02:48:43 31° N 02:51:12 85° WNW 02:56:17 10° SSW
USA 281 4.3 02:54:09 26° NNE 02:54:09 26° NNE 02:57:30 10° N
H-II Stage 2 3.0 02:44:17 10° W 02:55:23 48° S 02:55:53 46° SSE
OAO 3 Copernicus 4.3 02:53:16 10° W 02:58:07 80° WSW 02:58:07 80° WSW
YAOGAN 1 4.1 03:04:40 10° SSW 03:08:31 33° W 03:12:23 10° NNW
Cosmos 2278 Rocket 4.4 03:04:30 10° WSW 03:08:43 21° WNW 03:12:58 10° N
Cosmos 468 Rocket 4.5 03:06:27 10° NNW 03:10:28 53° NW 03:10:28 53° NW
Cosmos 2082 Rocket 2.8 03:06:09 10° NNW 03:09:59 45° NNW 03:09:59 45° NNW
OAO 2 Rocket 3.9 03:08:53 10° W 03:12:53 55° WNW 03:12:53 55° WNW
Cosmos 2369 Rocket 4.3 03:15:10 10° S 03:15:59 14° S 03:15:59 14° S
DELTA 2 R/B (1) 4.2 03:17:19 10° WSW 03:21:20 49° SW 03:21:20 49° SW
SJ 16-02 3.6 03:24:30 10° WSW 03:27:45 21° WNW 03:28:18 20° NW
CZ-3 R/B 3.8 11:03:31 46° SSW 11:08:27 54° S 11:17:31 10° E
SL-16 R/B 4.4 11:15:49 10° SSE 11:17:35 20° SSE 11:17:35 20° SSE
SJ 16-02 4.1 11:54:56 10° NNE 11:57:21 15° ENE 11:59:46 10° E
